[[{"header":{"parameterUnit":"m.s-1","parameterCategory":1,"la1":30.2991,"la2":30.254,"lo1":-89.0895,"lo2":-89.0444,"dy":0.0017,"dx":0.0017,"nx":28,"ny":28,"refTime":"2024-05-26T09:00:00:Z","depth":0,"parameterNumber":2,"parameterNumberName":"U-component_of_WINDS"},"data":[0,0,0,0,0,0,0,0,0,0,0,0,0,0,0,0,0,0,0,0,0,0,0,0,0,0,0,0,0,0,0,0,0,0,0,0,0,0,0,0,0,0,0,0,0,0,0,0,0,0,0,0,0,0,0,0,0,0,1.8389,1.839,0,1.8532,1.8534,1.8536,1.8589,1.8589,1.8588,1.8588,1.8738,1.8742,1.8747,0,0,0,0,0,0,0,0,0,0,0,0,0,1.8165,1.8169,1.8389,1.8391,1.8392,1.8532,1.8534,1.8536,1.8589,1.8589,1.8588,1.8587,1.8737,1.8742,1.8747,0,0,0,0,0,0,0,0,0,0,0,0,0,1.8281,1.817,1.8389,1.8436,1.8441,1.8532,1.8534,1.8537,1.8589,1.8589,1.8588,1.8587,1.8735,1.8741,1.8748,1.8803,0,0,1.8768,1.8771,0,0,0,0,0,0,0,0,1.8274,1.8289,1.8427,1.8433,1.8439,1.8542,1.851,1.8626,1.8589,1.8533,1.8588,1.8587,1.8674,1.8685,1.8714,1.881,1.8817,1.8769,1.8773,1.8776,1.8778,0,0,0,0,0,0,0,1.8266,1.8283,1.8446,1.8429,1.8436,1.8451,1.8467,1.8533,1.8606,1.8538,1.8542,1.8558,1.8677,1.8707,1.8718,1.8819,1.8769,1.8775,1.8779,1.8781,1.897,1.8971,0,0,0,0,0,0,1.825,1.8276,1.8441,1.845,1.8353,1.8456,1.8473,1.851,1.8605,1.8619,1.8559,1.856,1.8696,1.871,1.8723,1.8796,1.8776,1.8782,1.8786,1.8969,1.897,1.8971,0,0,0,0,0,0,1.8244,1.8264,1.8435,1.8364,1.8387,1.846,1.8501,1.8513,1.8543,1.8621,1.8634,1.8576,1.8696,1.8714,1.8783,1.8802,1.8785,1.8791,1.8968,1.897,1.8971,1.894,0,0,0,0,0,0,1.8238,1.8262,1.8282,1.8364,1.8391,1.8491,1.8502,1.8516,1.8554,1.8558,1.8641,1.8654,1.8697,1.8773,1.879,1.8811,1.8796,1.8967,1.8969,1.897,1.894,1.894,1.8941,0,0,0,0,0,1.823,1.8268,1.8283,1.8303,1.8418,1.8492,1.8508,1.8556,1.8556,1.8578,1.8628,1.8651,1.8797,1.878,1.8799,1.8822,1.8966,1.8968,1.897,1.8939,1.894,1.8941,0,0,0,0,0,0,1.8187,1.828,1.8297,1.8363,1.8419,1.8501,1.853,1.8555,1.8613,1.8614,1.8672,1.869,1.8755,1.8796,1.8775,1.8882,1.8883,1.8889,1.8853,1.8854,1.8854,1.8844,1.8802,0,0,0,0,0,1.8185,1.8237,1.8315,1.8366,1.8393,1.8457,1.8491,1.8523,1.8584,1.8609,1.8664,1.8723,1.8783,1.882,1.8879,1.8946,1.8965,1.8971,1.8972,1.8972,1.8977,1.9017,1.902,1.8979,1.8979,1.8979,0,0,1.8182,1.8239,1.8268,1.8359,1.8406,1.846,1.8477,1.8532,1.8573,1.8618,1.8686,1.8729,1.8799,1.8867,1.89,1.8903,1.8992,1.8974,1.8974,1.8979,1.9019,1.9023,1.9027,1.8981,1.898,1.898,0,0,1.8204,1.8252,1.83,1.8347,1.8418,1.8461,1.8472,1.8551,1.8581,1.865,1.8685,1.8735,1.8836,1.8885,1.8923,1.8965,1.899,1.8983,1.8986,1.9024,1.9027,1.903,1.9047,1.9052,1.8987,1.8987,1.8987,0,1.8192,1.8272,1.8322,1.8376,1.8416,1.8458,1.8508,1.8552,1.8639,1.8666,1.8668,1.8795,1.8846,1.8927,1.8937,1.8966,1.8983,1.8974,1.9022,1.9026,1.903,1.9046,1.9052,1.8986,1.8986,1.8986,1.8986,0,1.8255,1.831,1.8341,1.8423,1.8466,1.8518,1.8577,1.8615,1.8643,1.8686,1.8757,1.8819,1.8892,1.8914,1.8942,1.9,1.8999,1.9011,1.9013,1.9032,1.9048,1.9055,1.8984,1.8985,1.8985,1.8985,0,0,1.8253,1.8363,1.8374,1.8412,1.8495,1.854,1.8594,1.8664,1.8696,1.8756,1.8804,1.8888,1.89,1.8943,1.8978,1.9011,1.9043,1.9019,1.9022,1.9023,1.9111,1.9103,1.9109,1.9059,1.906,1.9061,1.9106,0,1.8287,1.8385,1.8432,1.851,1.8563,1.8605,1.8653,1.8709,1.8751,1.8803,1.8849,1.8909,1.8919,1.8946,1.898,1.9031,1.9061,1.9028,1.9106,1.9108,1.9088,1.9118,1.9109,1.9148,1.9112,1.9114,1.9114,0,1.834,1.8398,1.8481,1.8559,1.8583,1.8625,1.8694,1.8743,1.8809,1.8837,1.8885,1.8919,1.898,1.8977,1.9063,1.904,1.9074,1.9104,1.9107,1.9117,1.9113,1.9129,1.9161,1.9167,1.9125,1.9124,1.9123,0,1.8332,1.8432,1.8495,1.8527,1.8618,1.8647,1.8687,1.8752,1.8791,1.8852,1.8879,1.8946,1.8983,1.9035,1.9087,1.908,1.9168,1.917,1.9194,1.9193,1.9212,1.921,1.925,1.9232,1.9232,1.9232,1.9231,0,1.8365,1.8415,1.8493,1.8532,1.859,1.8643,1.8699,1.8742,1.88,1.8849,1.8889,1.8935,1.9,1.9054,1.9095,1.916,1.9177,1.9202,1.9213,1.9199,1.9196,1.9223,1.9223,1.9233,1.9233,1.9233,1.9232,0,1.8367,1.8421,1.8493,1.8574,1.8595,1.8634,1.8704,1.8745,1.8788,1.885,1.8868,1.8937,1.9003,1.9059,1.9147,1.9174,1.9242,1.9254,1.922,1.9226,1.9248,1.9245,1.9308,1.932,1.9292,1.9292,1.9292,0,1.8385,1.8424,1.851,1.8545,1.8584,1.8641,1.8681,1.8736,1.8778,1.8856,1.8887,1.8956,1.9014,1.9118,1.9177,1.9244,1.9259,1.9276,1.927,1.9255,1.9261,1.9258,1.9264,1.9277,1.9277,1.9277,1.9277,0,1.8412,1.8437,1.8494,1.856,1.8608,1.8663,1.872,1.8747,1.8813,1.8857,1.8925,1.897,1.9059,1.9127,1.9201,1.9244,1.9272,1.9278,1.9288,1.9275,1.9254,1.9267,1.9222,1.9277,1.9277,1.9277,1.9277,1.9277,1.8424,1.8461,1.8527,1.859,1.8638,1.869,1.8732,1.8781,1.8838,1.8915,1.8944,1.9014,1.908,1.9182,1.9225,1.9281,1.9286,1.9299,1.9303,1.9305,1.9304,1.9244,1.9295,1.9295,1.9295,1.9295,1.9295,0,1.8454,1.8499,1.8556,1.8633,1.8683,1.8704,1.8768,1.8808,1.8869,1.8928,1.8984,1.9063,1.913,1.9194,1.9265,1.9298,1.9313,1.9315,1.9313,1.9323,1.9296,1.9281,1.9301,1.9301,1.9301,1.9301,1.9301,1.9301,1.8476,1.8541,1.8574,1.8664,1.8709,1.8776,1.8811,1.886,1.8908,1.8994,1.905,1.909,1.9153,1.9228,1.9291,1.9308,1.9333,1.9332,1.9353,1.9326,1.9325,1.9323,1.931,1.9336,1.9336,1.9376,1.9376,1.9376]},{"header":{"parameterUnit":"m.s-1","parameterCategory":1,"la1":30.2991,"la2":30.254,"lo1":-89.0895,"lo2":-89.0444,"dy":0.0017,"dx":0.0017,"nx":28,"ny":28,"refTime":"2024-05-26T09:00:00:Z","depth":0,"parameterNumber":3,"parameterNumberName":"V-component_of_WINDS"},"data":[0,0,0,0,0,0,0,0,0,0,0,0,0,0,0,0,0,0,0,0,0,0,0,0,0,0,0,0,0,0,0,0,0,0,0,0,0,0,0,0,0,0,0,0,0,0,0,0,0,0,0,0,0,0,0,0,0,0,4.9555,4.9557,0,4.9681,4.9683,4.9684,4.9697,4.9696,4.9695,4.9694,4.9813,4.9817,4.9821,0,0,0,0,0,0,0,0,0,0,0,0,0,4.9317,4.9321,4.9555,4.9557,4.9558,4.9681,4.9683,4.9684,4.9698,4.9696,4.9695,4.9693,4.9811,4.9816,4.9822,0,0,0,0,0,0,0,0,0,0,0,0,0,4.9429,4.9323,4.9555,4.958,4.9584,4.9681,4.9683,4.9685,4.9698,4.9696,4.9694,4.9692,4.981,4.9816,4.9822,4.99,0,0,4.9842,4.9845,0,0,0,0,0,0,0,0,4.9423,4.9438,4.9575,4.9578,4.9583,4.9672,4.9642,4.9757,4.9698,4.9654,4.9694,4.9691,4.9767,4.9777,4.9804,4.9906,4.9911,4.9843,4.9847,4.985,4.9851,0,0,0,0,0,0,0,4.9415,4.9432,4.9605,4.9577,4.9581,4.9582,4.9596,4.9664,4.9719,4.9658,4.9659,4.9674,4.9768,4.9798,4.9807,4.9913,4.9843,4.9848,4.9852,4.9855,5.0084,5.0086,0,0,0,0,0,0,4.9404,4.9426,4.9601,4.9609,4.9497,4.9588,4.9603,4.9645,4.9719,4.9728,4.9676,4.9675,4.9788,4.9799,4.9811,4.9908,4.985,4.9856,4.9859,5.0082,5.0084,5.0087,0,0,0,0,0,0,4.9399,4.9419,4.9596,4.9518,4.954,4.9594,4.964,4.9648,4.9678,4.9732,4.9741,4.9697,4.9787,4.9802,4.9879,4.9912,4.9859,4.9864,5.0079,5.0083,5.0086,5.01,0,0,0,0,0,0,4.9392,4.9417,4.945,4.9519,4.9544,4.9664,4.9643,4.9652,4.969,4.969,4.9754,4.9763,4.9786,4.9869,4.9885,4.992,4.987,5.0076,5.0081,5.0085,5.0097,5.0104,5.0109,0,0,0,0,0,4.9383,4.9447,4.9451,4.9472,4.9586,4.9666,4.968,4.9709,4.9693,4.9724,4.9759,4.9761,4.9906,4.9877,4.9895,4.9932,5.0074,5.008,5.0084,5.0094,5.0103,5.0109,0,0,0,0,0,0,4.9376,4.9456,4.9462,4.955,4.9602,4.9668,4.9709,4.9717,4.9771,4.9768,4.9798,4.9812,4.9888,4.9917,4.9884,5.0011,4.9988,4.9997,4.9989,4.9998,5.0004,4.9995,4.9875,0,0,0,0,0,4.9386,4.9447,4.9512,4.9583,4.9609,4.9654,4.969,4.9708,4.9761,4.9782,4.9822,4.9871,4.9928,4.9964,5.0019,5.0101,5.0115,5.0136,5.0142,5.0147,5.0154,5.0199,5.0209,5.0103,5.0103,5.0103,0,0,4.9404,4.9456,4.9492,4.9583,4.9625,4.9685,4.9672,4.9736,4.978,4.979,4.9867,4.9898,4.9954,5.0034,5.0071,5.0061,5.0186,5.0153,5.0156,5.0161,5.0205,5.0215,5.0224,5.0106,5.0106,5.0105,0,0,4.947,4.9515,4.958,4.9623,4.9688,4.9718,4.9734,4.98,4.9822,4.9899,4.9909,4.9959,5.0056,5.0096,5.0129,5.021,5.0213,5.0227,5.0259,5.0303,5.0311,5.0319,5.0348,5.0358,5.0234,5.0234,5.0234,0,4.9484,4.9578,4.9611,4.9676,4.9715,4.9731,4.9796,4.9834,4.9912,4.9938,4.9926,5.0049,5.0088,5.0177,5.0197,5.0223,5.0241,5.022,5.0308,5.0316,5.0323,5.0351,5.0362,5.0235,5.0235,5.0235,5.0235,0,4.9592,4.9657,4.9701,4.9781,4.9824,4.9888,4.9929,4.9969,4.9983,5.0013,5.0091,5.0138,5.0204,5.0226,5.0239,5.0317,5.0309,5.0302,5.028,5.0334,5.0361,5.0372,5.0237,5.0237,5.0236,5.0236,0,0,4.9656,4.9755,4.977,4.9807,4.988,4.9929,4.9993,5.006,5.0094,5.0146,5.02,5.0282,5.0277,5.0314,5.0331,5.037,5.0431,5.0358,5.036,5.037,5.052,5.0525,5.0537,5.0434,5.0436,5.0437,5.0516,0,4.9729,4.9848,4.988,4.9979,5.0039,5.0055,5.011,5.0159,5.0189,5.0242,5.0273,5.0331,5.032,5.0343,5.0382,5.0416,5.0462,5.041,5.0481,5.0483,5.0467,5.0551,5.0557,5.0628,5.0526,5.0528,5.0529,0,4.9831,4.9891,4.9997,5.0064,5.009,5.014,5.0204,5.0255,5.031,5.0329,5.0372,5.0386,5.045,5.0424,5.0512,5.0477,5.0507,5.0528,5.0532,5.0539,5.051,5.0561,5.0652,5.0663,5.0546,5.0545,5.0543,0,4.9868,4.9974,5.0051,5.0082,5.0161,5.0196,5.023,5.0284,5.0323,5.0378,5.0403,5.0463,5.0496,5.0541,5.057,5.0548,5.0655,5.0632,5.0671,5.067,5.0693,5.0691,5.079,5.0712,5.0712,5.0712,5.0711,0,4.9947,5.0011,5.0069,5.0117,5.0189,5.0223,5.0292,5.0326,5.0374,5.0427,5.0442,5.049,5.0526,5.0578,5.0601,5.067,5.0684,5.07,5.0705,5.0699,5.0697,5.0719,5.0715,5.0715,5.0714,5.0713,5.0713,0,4.9999,5.0041,5.0127,5.0196,5.0215,5.0265,5.0323,5.0368,5.0399,5.0465,5.0482,5.053,5.0592,5.0626,5.0703,5.0718,5.0796,5.0798,5.0778,5.078,5.0818,5.0814,5.0935,5.0952,5.0863,5.0863,5.0864,0,5.0047,5.0098,5.0174,5.0212,5.0248,5.0309,5.0349,5.0385,5.0425,5.0493,5.053,5.0594,5.0647,5.0746,5.0785,5.0843,5.0847,5.0886,5.0856,5.0848,5.0848,5.0845,5.085,5.0891,5.0891,5.0892,5.0893,0,5.0127,5.0146,5.0206,5.0274,5.0323,5.0377,5.043,5.0459,5.0503,5.0547,5.0614,5.0655,5.0736,5.0798,5.0861,5.0892,5.0899,5.0902,5.0914,5.0908,5.0895,5.0903,5.0793,5.0899,5.0898,5.0898,5.0897,5.0897,5.0179,5.0225,5.0287,5.0353,5.0398,5.0447,5.0494,5.0532,5.0589,5.066,5.0677,5.0746,5.0799,5.0884,5.0918,5.097,5.0963,5.098,5.0985,5.0989,5.099,5.0887,5.0981,5.0981,5.0981,5.0981,5.0981,0,5.0261,5.0302,5.0363,5.0439,5.0491,5.0497,5.0556,5.0597,5.066,5.0711,5.0764,5.084,5.0901,5.0946,5.1007,5.1041,5.1046,5.1056,5.1054,5.1061,5.0994,5.0977,5.1051,5.1051,5.1051,5.1051,5.1051,5.1051,5.031,5.0389,5.0415,5.0515,5.0554,5.0626,5.0659,5.0704,5.0745,5.083,5.0883,5.0913,5.0961,5.1027,5.1082,5.1093,5.1115,5.1125,5.1137,5.1073,5.1066,5.1058,5.1043,5.113,5.113,5.12,5.1201,5.1201]}]]